Regional Weather Roundup
Issued by NWS

Home | Current Version | Previous Version | Text Only | Print | Product List | Glossary On
Versions: 1 2 3 4 5 6 7 8 9 10 11 12 13 14 15 16 17 18 19 20 21 22 23 24 25 26 27 28 29 30 31 32 33 34 35 36 37 38 39 40 41 42 43 44 45 46 47 48
000
ASPQ40 PGUM 262310
RWRPQ
WEATHER ROUNDUP FOR THE MARIANAS AND MICRONESIA
NATIONAL WEATHER SERVICE TIYAN GU
900 AM CHST TUE JAN 27 2015

GUZ001>004-270000-
MARIANA ISLANDS-

CITY           SKY/WX    TMP DP  RH WIND       PRES   REMARKS
GUAM AIRPORT   PTSUNNY   82  73  74 E9        29.92R
ANDERSEN AFB   PTSUNNY   79  73  83 E10       29.93R
ROTA AIRPORT   NOT AVBL
TINIAN AP      MOSUNNY   82  73  74 E9        29.91R
SAIPAN AP      MOSUNNY   82  73  74 VRB6      29.92R

$$

PMZ161-270000-
REPUBLIC OF PALAU-

CITY           SKY/WX    TMP DP  RH WIND       PRES   REMARKS
KOROR AP       PTSUNNY   82  77  83 E8        29.87R HX  91
KOROR WSO      NOT AVBL

$$

PMZ171>174-270000-
FEDERATED STATES OF MICRONESIA-

CITY           SKY/WX    TMP DP  RH WIND       PRES   REMARKS
YAP AIRPORT    NOT AVBL
CHUUK AP       CLOUDY    82  73  74 NE14      29.81R
POHNPEI AP     CLOUDY    84  77  79 E16       29.79S HX  94
POHNPEI WSO    NOT AVBL
KOSRAE AP      CLOUDY    79  77  94 N21       29.82S

$$

PMZ181-270000-
REPUBLIC OF THE MARSHALL ISLANDS-

CITY           SKY/WX    TMP DP  RH WIND       PRES   REMARKS
KWAJALEIN AP   PTSUNNY   84  68  58 NE23G29   29.83S
MAJURO AP      PTSUNNY   84  75  74 NE17      29.76S HX  92
MAJURO WSO     PTSUNNY   84  77  79 NE12      29.77F HX  94

$$



USA.gov is the U.S. government's official web portal to all federal, state and local government web resources and services.